Погода в Первомайском

Россия / Московская область     55°32′11″N   37°09′32″E
темп.,
°C
ветер,
м/с
пор.,
м/с
влажн.,
%
обл.,
%
осадки,
мм/ч
давл.,
гПа
погр.,
м
19 апреля, пн
пн1900:00+6всв4117972 0.0 1022502
03:00+7всв51077100 0.0 1022604
06:00+6всв51085100 0.1 1022596
09:00+6всв598282 0.1 1023625
12:00+10всв686078 0.0 10221195
15:00+11всв6854100 0.0 10221646
18:00+9всв6957100 0.0 10221416
21:00+7в61064100 0.0 10231113
20 апреля, вт
вт2000:00+4в51083100 0.3 1023835
03:00+2всв51296100 1.5 1022634
06:00+2в51182100 0.1 1021681
09:00+3в61182100 0.1 1021647
12:00+7в7964100 0.0 10191212
15:00+3в61095100 0.3 1018679
18:00+1всв51296100 1.3 1016540
21:00+1всв51398100 3.2 1013539
21 апреля, ср
ср2100:00+3всв61397100 5.8 1008900
03:00+1св51498100 9.6 1003565
06:00+1с4999100 9.0 1000427
09:00+2сз4799100 12.3 998276
12:00+2з51198100 2.2 1001614
15:00+3зюз61194100 2.3 1005941
18:00+4юз41192100 0.0 1008782
21:00+3ю4109794 0.1 1010308
22 апреля, чт
чт2200:00+2ююз3109777 0.1 1011269
03:00+3ююз4109597 0.1 1012347
06:00+3ююз3109878 0.0 1013372
09:00+6ююз479078 0.0 1014497
12:00+10ююз467417 0.0 10151066
15:00+12ююз577461 0.9 10151116
18:00+11ю3782100 0.3 1015491
21:00+7ю389244 0.3 1016151
23 апреля, пт
пт2300:00+7ю41192100 0.0 1016255
03:00+6ю4119334 0.0 1016269
06:00+6ю3109326 0.0 1016238
09:00+11ю5127888 0.0 1015568
12:00+14ю610658 0.4 10141460
15:00+15ю6106024 0.9 10131636
18:00+13ю612665 0.1 1011932
21:00+10ю6158158 0.5 1011643